Flag for U.S.A. Weather past 2 weeks in Juneau, Alaska, U.S.A.

Now
50 °F

Light rain. Low clouds.


Feels Like: 50 °F
Forecast: 49 / 57 °F
Wind: No wind

Location: Juneau International Airport

Current Time: Aug 29, 2015 at 5:07:32 AM

Latest Report: Aug 29, 2015 at 3:53 AM


Visibility: 10 mi

Pressure: 29.42 "Hg

Humidity: 93%

Dew point: 48 °F

Location of JuneauLocation

Historic Weather in Juneau — Graph

°F

Juneau temperature yesterday

Maximum temperature yesterday: 54 °F (at 1:53 PM)
Minimum temperature yesterday: 51 °F (at 5:53 PM)
Average temperature yesterday: 52 °F

Past Weeks' High & Low Weather Summary

 TemperatureHumidityPressure
High74 °F (Aug 15, 3:53 PM)100% (Aug 21, 8:53 AM)30.23 "Hg (Aug 21, 8:53 AM)
Low42 °F (Aug 25, 5:53 AM)38% (Aug 15, 3:53 PM)29.37 "Hg (Aug 28, 1:53 PM)
Average56 °F84%29.95 "Hg
* Reported Aug 14 3:53 AM — Aug 29 3:53 AM, Juneau, Weather by CustomWeather, © 2015

Note: Actual official high and low records may vary slightly from our data, if they occured in-between our weather recording intervals... More about our weather records

Advertising

Juneau weather history for previous 24 hours

 ConditionsComfort  
Time TempWeatherWind HumidityBarometerVisibility
3:53 AM
Sat, Aug 29
50 °FLight rain. Low clouds.No wind93%29.42 "Hg10 mi
2:53 AM50 °FLow clouds.No wind93%29.41 "Hg10 mi
1:53 AM50 °FLight rain. Mostly cloudy.3 mph93%29.43 "Hg10 mi
12:53 AM51 °FLight rain. Overcast.No wind96%29.43 "Hg10 mi
10:53 PM
Fri, Aug 28
51 °FLight rain. Mostly cloudy.No wind96%29.44 "Hg10 mi
9:53 PM51 °FLight rain. Mostly cloudy.No wind92%29.44 "Hg10 mi
8:53 PM51 °FLight rain. Fog.No wind96%29.43 "Hg6 mi
7:53 PM51 °FLight rain. Cloudy.7 mph96%29.42 "Hg8 mi
6:53 PM52 °FRain. More clouds than sun.No wind93%29.41 "Hg8 mi
5:53 PM51 °FLight rain. More clouds than sun.5 mph96%29.40 "Hg7 mi
4:53 PM53 °FLight rain. Mostly cloudy.3 mph93%29.39 "Hg10 mi
3:53 PM54 °FLight rain. Mostly cloudy.3 mph90%29.38 "Hg10 mi
2:53 PM53 °FLight rain. Mostly cloudy.3 mph89%29.37 "Hg10 mi
1:53 PM54 °FLight rain. Low clouds.6 mph90%29.37 "Hg9 mi
12:53 PM53 °FLight rain. Low clouds.6 mph93%29.38 "Hg7 mi
11:53 AM53 °FLight rain. Low clouds.3 mph96%29.38 "Hg8 mi
10:53 AM53 °FLight rain. Low clouds.No wind93%29.38 "Hg10 mi
9:53 AM53 °FLight rain. Mostly cloudy.No wind89%29.38 "Hg10 mi
8:53 AM52 °FLight rain. Mostly cloudy.3 mph93%29.38 "Hg10 mi
7:53 AM52 °FLight rain. Mostly cloudy.No wind93%29.38 "Hg10 mi
6:53 AM52 °FLight rain. Overcast.5 mph89%29.39 "Hg10 mi
5:53 AM52 °FLight rain. Mostly cloudy.8 mph93%29.40 "Hg10 mi
Weather by CustomWeather, © 2015

See weather overviewHow to use our weather pages